Epoch 2016 Nov. 28.0 TT = JDT 2457720.5 T 2016 Nov. 8.12340 TT MPCW q 2.0048522 (2000.0) P Q n 0.28442972 Peri. 132.84528 -0.05556188 -0.99673414 a 2.2899152 Node 320.22668 +0.88727600 -0.02237516 e 0.1244863 Incl. 5.25552 +0.45788008 -0.07759123 P 3.47 From 135 observations 2010 Jan. 6-2017 Jan. 28, mean residual 0".3.
H = 21.3 G = 0.15